Spartanburg, SC

5:57 PM EST on December 13, 2017 (GMT -0500)
Spartanburg Downtown Memorial

Weather History for KSPA - January, 2013

Change the Weather History Date:

Monday, January 14, 2013

  Actual Average (KGSP) Record (KGSP)
Temperature  
Mean Temperature 64 °F -  
Max Temperature 69 °F 48 °F 82 °F (1911)
Min Temperature 59 °F 28 °F 8 °F (1893)
Degree Days  
Heating Degree Days 1    
Growing Degree Days 14 (Base 50)    
Moisture  
Dew Point 64 °F    
Average Humidity 98    
Maximum Humidity 100    
Minimum Humidity 88    
Precipitation  
Precipitation 0.15 in - - ()
Sea Level Pressure  
Sea Level Pressure 30.09 in    
Wind  
Wind Speed 2 mph (SW)    
Max Wind Speed 9 mph    
Max Gust Speed -    
Visibility 7 miles    
Events Rain    
Averages and records for this station are not official NWS values.
T = Trace of Precipitation, MM = Missing Value Source: NWS Daily Summary

Daily Weather History Graph

Daily Weather History Graph

Search for Another Location

Airport or City:

Trip Planner

Search our weather history database for the weather conditions in past years. The results will help you decide how hot, cold, wet, or windy it might be!

Date:

Astronomy

Jan. 14, 2013 Rise Set
Actual Time 7:35 AM EST 5:39 PM EST
Civil Twilight 7:07 AM EST 6:06 PM EST
Nautical Twilight 6:36 AM EST 6:37 PM EST
Astronomical Twilight 6:06 AM EST 7:08 PM EST
Moon 9:17 AM EST (1/14) 9:12 PM EST (1/14)
Length of Visible Light 10h 58m
Length of Day
10h 03m
Waxing Crescent, 11% of the Moon is Illuminated
Jan 14
Waxing Crescent
Jan 18
First Quarter
Jan 26
Full
Feb 3
Last Quarter
Feb 10
New

Hourly Weather History & Observations

Time (EST) Temp. Dew Point Humidity Pressure Visibility Wind Dir Wind Speed Gust Speed Precip Events Conditions
12:15 AM 59.0 °F 59.0 °F 100% 30.08 in 2.5 mi Calm Calm - N/A   Mostly Cloudy
12:35 AM 59.0 °F 59.0 °F 100% 30.08 in 4.0 mi Calm Calm - N/A   Overcast
12:55 AM 60.8 °F 60.8 °F 100% 30.09 in 7.0 mi Calm Calm - N/A   Overcast
1:15 AM 60.8 °F 60.8 °F 100% 30.08 in 7.0 mi Calm Calm - N/A   Overcast
1:35 AM 60.8 °F 60.8 °F 100% 30.08 in 5.0 mi Calm Calm - N/A   Overcast
1:55 AM 60.8 °F 60.8 °F 100% 30.09 in 10.0 mi Calm Calm - N/A   Overcast
2:15 AM 62.6 °F 62.6 °F 100% 30.08 in 10.0 mi Calm Calm - N/A   Overcast
2:35 AM 62.6 °F 62.6 °F 100% 30.09 in 10.0 mi Calm Calm - N/A   Overcast
2:55 AM 62.6 °F 62.6 °F 100% 30.10 in 10.0 mi Calm Calm - N/A Rain Rain
3:15 AM 60.8 °F 60.8 °F 100% 30.09 in 4.0 mi Calm Calm - 0.01 in Rain Light Rain
3:55 AM 60.8 °F 60.8 °F 100% 30.09 in 3.0 mi Calm Calm - 0.03 in Rain Light Rain
4:15 AM 60.8 °F 60.8 °F 100% 30.07 in 4.0 mi Calm Calm - N/A Rain Light Rain
4:35 AM 60.8 °F 60.8 °F 100% 30.07 in 2.5 mi Calm Calm - N/A   Overcast
4:55 AM 60.8 °F 60.8 °F 100% 30.07 in 3.0 mi Calm Calm - 0.01 in Rain Rain
5:15 AM 60.8 °F 60.8 °F 100% 30.06 in 2.5 mi Calm Calm - N/A   Drizzle
5:35 AM 60.8 °F 60.8 °F 100% 30.06 in 2.5 mi Calm Calm - N/A Rain Rain
5:55 AM 60.8 °F 60.8 °F 100% 30.05 in 1.8 mi Calm Calm - 0.01 in   Drizzle
6:15 AM 60.8 °F 60.8 °F 100% 30.06 in 2.5 mi Calm Calm - N/A Rain Rain
6:35 AM 60.8 °F 60.8 °F 100% 30.07 in 2.0 mi Calm Calm - 0.01 in Rain Light Rain
6:55 AM 60.8 °F 60.8 °F 100% 30.08 in 1.8 mi Calm Calm - 0.02 in Rain Rain
7:15 AM 60.8 °F 60.8 °F 100% 30.09 in 2.0 mi Calm Calm - 0.02 in Rain Rain
7:35 AM 62.6 °F 62.6 °F 100% 30.09 in 4.0 mi Calm Calm - 0.03 in Rain Rain
7:55 AM 62.6 °F 62.6 °F 100% 30.10 in 5.0 mi South 3.5 mph - 0.05 in Rain Light Rain
8:15 AM 62.6 °F 62.6 °F 100% 30.10 in 5.0 mi SSW 3.5 mph - N/A Rain Light Rain
8:35 AM 62.6 °F 62.6 °F 100% 30.11 in 5.0 mi SW 4.6 mph - N/A   Overcast
8:55 AM 62.6 °F 62.6 °F 100% 30.10 in 5.0 mi SSW 4.6 mph - N/A Rain Light Rain
9:15 AM 64.4 °F 64.4 °F 100% 30.12 in 5.0 mi SW 4.6 mph - N/A Rain Light Rain
9:35 AM 64.4 °F 64.4 °F 100% 30.12 in 7.0 mi SSW 5.8 mph - N/A Rain Light Rain
9:55 AM 64.4 °F 64.4 °F 100% 30.13 in 5.0 mi SW 5.8 mph - 0.01 in Rain Light Rain
10:15 AM 64.4 °F 64.4 °F 100% 30.13 in 5.0 mi SW 4.6 mph - N/A Rain Rain
10:35 AM 64.4 °F 64.4 °F 100% 30.13 in 5.0 mi SSW 4.6 mph - 0.01 in Rain Light Rain
10:55 AM 64.4 °F 64.4 °F 100% 30.12 in 5.0 mi SW 3.5 mph - 0.02 in Rain Rain
11:15 AM 64.4 °F 64.4 °F 100% 30.11 in 7.0 mi SW 4.6 mph - N/A   Overcast
11:35 AM 66.2 °F 66.2 °F 100% 30.10 in 7.0 mi SSW 3.5 mph - N/A   Overcast
11:55 AM 66.2 °F 66.2 °F 100% 30.09 in 7.0 mi SW 5.8 mph - N/A   Overcast
12:15 PM 66.2 °F 66.2 °F 100% 30.08 in 7.0 mi SW 4.6 mph - N/A   Overcast
12:35 PM 66.2 °F 66.2 °F 100% 30.07 in 7.0 mi SSW 5.8 mph - N/A   Overcast
12:55 PM 66.2 °F 66.2 °F 100% 30.07 in 7.0 mi SW 4.6 mph - N/A   Overcast
1:15 PM 68.0 °F 68.0 °F 100% 30.06 in 7.0 mi SSW 3.5 mph - N/A   Overcast
1:35 PM 68.0 °F 68.0 °F 100% 30.06 in 7.0 mi SW 5.8 mph - N/A   Overcast
1:55 PM 68.0 °F 68.0 °F 100% 30.06 in 7.0 mi SW 8.1 mph - N/A   Overcast
2:15 PM 69.8 °F 68.0 °F 94% 30.06 in 10.0 mi SSW 4.6 mph - N/A   Overcast
2:35 PM 69.8 °F 68.0 °F 94% 30.06 in 10.0 mi SW 5.8 mph - N/A   Overcast
3:15 PM 69.8 °F 68.0 °F 94% 30.07 in 10.0 mi SW 6.9 mph - N/A   Overcast
3:55 PM 69.8 °F 68.0 °F 94% 30.07 in 10.0 mi SW 5.8 mph - N/A   Overcast
4:15 PM 69.8 °F 68.0 °F 94% 30.08 in 10.0 mi SW 4.6 mph - N/A   Mostly Cloudy
4:35 PM 69.8 °F 68.0 °F 94% 30.09 in 10.0 mi Calm Calm - N/A   Overcast
4:55 PM 69.8 °F 68.0 °F 94% 30.09 in 10.0 mi WSW 4.6 mph - N/A   Mostly Cloudy
5:15 PM 69.8 °F 68.0 °F 94% 30.09 in 10.0 mi SW 3.5 mph - N/A   Overcast
5:35 PM 69.8 °F 68.0 °F 94% 30.09 in 10.0 mi Calm Calm - N/A   Mostly Cloudy
5:55 PM 68.0 °F 68.0 °F 100% 30.10 in 10.0 mi Calm Calm - N/A   Mostly Cloudy
6:15 PM 68.0 °F 68.0 °F 100% 30.10 in 10.0 mi Calm Calm - N/A   Mostly Cloudy
6:35 PM 68.0 °F 68.0 °F 100% 30.10 in 10.0 mi Calm Calm - N/A   Overcast
6:55 PM 68.0 °F 68.0 °F 100% 30.10 in 7.0 mi Calm Calm - N/A   Mostly Cloudy
7:15 PM 66.2 °F 66.2 °F 100% 30.10 in 7.0 mi Calm Calm - N/A   Scattered Clouds
7:35 PM 66.2 °F 66.2 °F 100% 30.10 in 5.0 mi Calm Calm - N/A   Mostly Cloudy
7:55 PM 64.4 °F 64.4 °F 100% 30.10 in 4.0 mi Calm Calm - N/A   Overcast
8:15 PM 66.2 °F 66.2 °F 100% 30.09 in 7.0 mi Calm Calm - N/A   Scattered Clouds
8:55 PM 66.2 °F 64.4 °F 94% 30.09 in 10.0 mi SW 3.5 mph - N/A   Clear
9:15 PM 66.2 °F 64.4 °F 94% 30.09 in 10.0 mi South 3.5 mph - N/A   Clear
9:35 PM 66.2 °F 64.4 °F 94% 30.09 in 10.0 mi SSW 3.5 mph - N/A   Clear
9:55 PM 66.2 °F 64.4 °F 94% 30.08 in 10.0 mi SSW 3.5 mph - N/A   Mostly Cloudy
10:15 PM 66.2 °F 64.4 °F 94% 30.09 in 10.0 mi SW 4.6 mph - N/A   Overcast
10:35 PM 66.2 °F 64.4 °F 94% 30.09 in 10.0 mi SW 6.9 mph - N/A   Overcast
10:55 PM 66.2 °F 64.4 °F 94% 30.10 in 10.0 mi SW 5.8 mph - N/A   Overcast
11:15 PM 68.0 °F 64.4 °F 88% 30.10 in 10.0 mi WSW 6.9 mph - N/A   Overcast
11:35 PM 66.2 °F 64.4 °F 94% 30.11 in 10.0 mi West 5.8 mph - N/A   Overcast
11:55 PM 64.4 °F 62.6 °F 94% 30.11 in 10.0 mi North 9.2 mph - N/A   Overcast